Simultaneous Nadir Overpasses (SNOs) Predictions

Prediction of SNOs between NOAA-19 and METOP-C Satellite Orbit:

Table of predicted SNOs for the next 14.0 days since TLE Epoch: 12/14/2018
Index Date (NOAA-19) Time (NOAA-19) Lat,Lon (NOAA-19) SZA (NOAA-19 ) Date (METOP-C) Time (METOP-C) Lat,Lon (METOP-C) SZA (METOP-C ) Distance(km) Time Diff (sec)
1 12/16/2018 06:20:48 -79.14, -84.70 77.41 12/16/2018 06:21:52 -79.13, -80.44 77.22 89.33 64
2 12/16/2018 07:11:45 78.83, 84.94 102.39 12/16/2018 07:12:41 78.83, 84.83 102.39 2.38 56
3 12/16/2018 08:02:40 -78.85,-107.89 77.60 12/16/2018 08:03:22 -78.83,-107.85 77.61 2.36 42
4 12/16/2018 08:53:46 78.83, 59.43 102.40 12/16/2018 08:54:03 78.81, 59.39 102.38 2.40 17
5 12/16/2018 09:44:40 -78.81,-133.14 77.62 12/16/2018 09:44:44 -78.81,-133.28 77.63 3.10 4
6 12/16/2018 10:35:47 78.83, 33.93 102.40 12/16/2018 10:35:25 78.80, 33.96 102.36 3.99 22
7 12/16/2018 11:26:41 -78.81,-158.64 77.62 12/16/2018 11:26:06 -78.80,-158.72 77.64 2.32 35
8 12/16/2018 12:17:47 78.80, 8.67 102.38 12/16/2018 12:16:46 78.82, 8.77 102.39 3.10 61
9 12/16/2018 13:08:42 -78.81, 175.85 77.61 12/16/2018 13:07:28 -78.78, 175.85 77.66 3.36 74
10 12/27/2018 05:02:12 78.86, 117.54 102.38 12/27/2018 05:03:24 78.89, 117.57 102.43 3.35 72
11 12/27/2018 05:53:08 -78.88, -75.33 77.61 12/27/2018 05:54:06 -78.87, -75.22 77.60 2.43 58
12 12/27/2018 06:44:13 78.86, 92.03 102.38 12/27/2018 06:44:46 78.87, 92.14 102.41 2.79 33
13 12/27/2018 07:35:08 -78.84,-100.58 77.64 12/27/2018 07:35:28 -78.85,-100.66 77.62 2.01 20
14 12/27/2018 08:26:14 78.86, 66.52 102.38 12/27/2018 08:26:08 78.86, 66.70 102.38 3.87 6
15 12/27/2018 09:17:09 -78.84,-126.09 77.64 12/27/2018 09:16:50 -78.84,-126.09 77.65 0.37 19
16 12/27/2018 10:08:14 78.83, 41.27 102.35 12/27/2018 10:07:30 78.84, 41.27 102.36 1.96 44
17 12/27/2018 10:59:10 -78.84,-151.59 77.64 12/27/2018 10:58:12 -78.83,-151.52 77.67 2.54 58




NCC Satellite Simultaneous Nadir Overpasses (SNOs) Prediction Service
